Weather History for Santa Maria, CA

Change the Weather History Date:

Saturday, December 7, 2013

  Actual Average Record
Temperature  
Mean Temperature 47 °F 52 °F  
Max Temperature 58 °F 64 °F 90 °F (1938)
Min Temperature 36 °F 40 °F 20 °F (1978)
Degree Days  
Heating Degree Days 18 13  
Month to date heating degree days 104 90  
Since 1 July heating degree days 486 736  
Cooling Degree Days 0 0  
Month to date cooling degree days 0 0  
Year to date cooling degree days 211 104  
Moisture  
Dew Point 39 °F    
Average Humidity 62    
Maximum Humidity 83    
Minimum Humidity 40    
Precipitation  
Precipitation 0.15 in 0.07 in 1.34 in (1918)
Month to date precipitation 0.15 0.39  
Year to date precipitation 2.96 12.22  
Since 1 July precipitation 0.47 2.51  
Sea Level Pressure  
Sea Level Pressure 30.09 in    
Wind  
Wind Speed 10 mph (WSW)    
Max Wind Speed 25 mph    
Max Gust Speed 30 mph    
Visibility 8 miles    
Events Rain    
T = Trace of Precipitation, MM = Missing Value Source: NWS Daily Summary

Daily Weather History Graph

Daily Weather History Graph

Search for Another Location

Airport:

Trip Planner

Search our weather history database for the weather conditions in past years. The results will help you decide how hot, cold, wet, or windy it might be!

Date:

Astronomy

Dec. 07, 2013 Rise Set
Actual Time 6:56 AM PST 4:50 PM PST
Civil Twilight 6:28 AM PST 5:18 PM PST
Nautical Twilight 5:57 AM PST 5:49 PM PST
Astronomical Twilight 5:26 AM PST 6:20 PM PST
Moon 10:53 AM PST (12/7) 10:28 PM PST (12/7)
Length of Visible Light 10h 49m
Length of Day
9h 53m
Waxing Crescent, 30% of the Moon is Illuminated
Dec 7
Waxing Crescent
Dec 9
First Quarter
Dec 17
Full
Dec 25
Last Quarter
Jan 1
New

Hourly Weather History & Observations

Time (PST) Temp. Windchill Dew Point Humidity Pressure Visibility Wind Dir Wind Speed Gust Speed Precip Events Conditions
12:51 AM 43.0 °F 38.8 °F 35.1 °F 74% 30.12 in 10.0 mi South 6.9 mph - 0.00 in   Scattered Clouds
1:51 AM 45.0 °F 41.8 °F 35.1 °F 68% 30.09 in 10.0 mi SSE 5.8 mph - 0.00 in Rain Light Rain
2:03 AM 44.6 °F 41.4 °F 35.6 °F 71% 30.08 in 10.0 mi SSE 5.8 mph - 0.00 in Rain Light Rain
2:36 AM 44.6 °F 40.7 °F 35.6 °F 71% 30.06 in 9.0 mi South 6.9 mph - 0.00 in Rain Light Rain
2:47 AM 44.6 °F 39.7 °F 37.4 °F 76% 30.06 in 9.0 mi SSE 9.2 mph - 0.00 in Rain Light Rain
2:51 AM 45.0 °F 40.6 °F 37.0 °F 74% 30.07 in 6.0 mi SSE 8.1 mph - 0.00 in Rain Light Rain
3:00 AM 44.6 °F 40.2 °F 37.4 °F 76% 30.06 in 8.0 mi SSE 8.1 mph - 0.00 in Rain Light Rain
3:15 AM 44.6 °F 39.2 °F 39.2 °F 81% 30.05 in 5.0 mi SE 10.4 mph - 0.00 in Rain Light Rain
3:51 AM 46.9 °F - 41.0 °F 80% 30.04 in 10.0 mi South 10.4 mph - 0.00 in   Overcast
4:32 AM 48.2 °F - 42.8 °F 82% 30.02 in 9.0 mi South 9.2 mph - 0.01 in Rain Light Rain
4:51 AM 48.9 °F - 44.1 °F 83% 30.04 in 7.0 mi SSW 5.8 mph - 0.02 in Rain Light Rain
5:04 AM 48.2 °F - 44.6 °F 87% 30.02 in 2.5 mi SSW 4.6 mph - 0.02 in Rain Rain
5:11 AM 48.2 °F - 44.6 °F 87% 30.03 in 3.0 mi SW 3.5 mph - 0.03 in Rain Light Rain
5:20 AM 50.0 °F - 46.4 °F 87% 30.03 in 5.0 mi South 4.6 mph - 0.04 in Rain Light Rain
5:30 AM 48.2 °F - 44.6 °F 87% 30.02 in 3.0 mi South 3.5 mph - 0.05 in Rain Rain
5:37 AM 48.2 °F - 46.4 °F 93% 30.02 in 4.0 mi SSE 8.1 mph - 0.06 in Rain Light Rain
5:51 AM 48.9 °F - 45.0 °F 86% 30.04 in 10.0 mi SSE 5.8 mph - 0.06 in   Overcast
6:19 AM 51.8 °F - 48.2 °F 88% 30.03 in 10.0 mi Calm Calm - N/A   Overcast
6:28 AM 51.8 °F - 48.2 °F 88% 30.02 in 10.0 mi Calm Calm - N/A   Overcast
6:51 AM 54.0 °F - 48.0 °F 80% 30.03 in 10.0 mi West 9.2 mph - N/A   Overcast
7:21 AM 53.6 °F - 48.2 °F 82% 30.04 in 1.8 mi WNW 19.6 mph 23.0 mph 0.00 in Rain Light Rain
7:31 AM 51.8 °F - 46.4 °F 82% 30.04 in 3.0 mi WNW 11.5 mph - 0.05 in Rain Light Rain
7:51 AM 51.1 °F - 48.0 °F 89% 30.06 in 4.0 mi WNW 10.4 mph - 0.07 in Rain Light Rain
8:17 AM 51.8 °F - 46.4 °F 82% 30.06 in 10.0 mi North - - 0.00 in Rain Light Rain
8:51 AM 53.1 °F - 48.0 °F 83% 30.09 in 10.0 mi Calm Calm - 0.00 in   Mostly Cloudy
9:51 AM 54.0 °F - 44.1 °F 69% 30.11 in 10.0 mi NW 13.8 mph - N/A   Mostly Cloudy
10:51 AM 57.0 °F - 37.9 °F 49% 30.12 in 10.0 mi NW 19.6 mph 24.2 mph N/A   Scattered Clouds
11:51 AM 57.0 °F - 35.1 °F 44% 30.10 in 10.0 mi WNW 20.7 mph - N/A   Scattered Clouds
12:51 PM 57.0 °F - 34.0 °F 42% 30.09 in 10.0 mi WNW 23.0 mph - N/A   Mostly Cloudy
1:51 PM 55.9 °F - 34.0 °F 44% 30.09 in 10.0 mi NW 13.8 mph - N/A   Mostly Cloudy
2:51 PM 55.9 °F - 33.1 °F 42% 30.10 in 10.0 mi NW 12.7 mph - N/A   Mostly Cloudy
3:51 PM 54.0 °F - 36.0 °F 51% 30.11 in 10.0 mi NW 19.6 mph 25.3 mph N/A   Clear
4:51 PM 50.0 °F - 34.0 °F 54% 30.14 in 10.0 mi NW 17.3 mph - N/A   Scattered Clouds
5:51 PM 48.0 °F - 35.1 °F 61% 30.15 in 10.0 mi North 8.1 mph - N/A   Scattered Clouds
6:51 PM 46.9 °F - 34.0 °F 61% 30.17 in 10.0 mi NNW 6.9 mph - N/A   Mostly Cloudy
7:51 PM 45.0 °F 41.2 °F 30.0 °F 56% 30.18 in 10.0 mi North 6.9 mph - N/A   Scattered Clouds
8:51 PM 45.0 °F 40.6 °F 27.0 °F 49% 30.18 in 10.0 mi North 8.1 mph - N/A   Clear
9:51 PM 41.0 °F 38.0 °F 28.9 °F 62% 30.21 in 10.0 mi West 4.6 mph - N/A   Clear
10:51 PM 37.9 °F 32.7 °F 28.0 °F 68% 30.22 in 10.0 mi West 6.9 mph - N/A   Clear
11:51 PM 36.0 °F 31.1 °F 27.0 °F 70% 30.23 in 10.0 mi WNW 5.8 mph - N/A   Clear